| time (UTC) | temp C | wind direction | speed KPH | gust KPH | rain 1hr cm | rain 24hr cm | rain mn cm | humidity % | barometer mb |
| 20260831080050 | 23 | 105 | 0.0 | 0.0 | 0.00 | 0.00 | 0.00 | 97 | 1015.7 |
| 20260831074548 | 23 | 105 | 0.0 | 0.0 | 0.00 | 0.00 | 0.00 | 97 | 1015.7 |
| 20260831073047 | 23 | 105 | 0.0 | 0.0 | 0.00 | 0.00 | 0.00 | 96 | 1015.8 |
| 20260831071544 | 24 | 105 | 0.0 | 0.0 | 0.00 | 0.00 | 0.00 | 96 | 1016.0 |
| 20260831070107 | 24 | 105 | 0.0 | 0.0 | 0.00 | 0.00 | 0.00 | 96 | 1016.1 |
| 20260831064542 | 24 | 105 | 0.0 | 0.0 | 0.00 | 0.00 | 0.00 | 96 | 1016.1 |
| 20260831063041 | 24 | 105 | 0.0 | 0.0 | 0.00 | 0.00 | 0.00 | 95 | 1016.1 |
| 20260831061540 | 24 | 105 | 0.0 | 0.0 | 0.00 | 0.00 | 0.00 | 95 | 1016.2 |
| 20260831060047 | 24 | 180 | 0.0 | 0.0 | 0.00 | 0.00 | 0.00 | 95 | 1016.1 |
| 20260831054537 | 24 | 180 | 0.0 | 0.0 | 0.00 | 0.00 | 0.00 | 95 | 1016.2 |
| 20260831053037 | 24 | 180 | 0.0 | 4.8 | 0.00 | 0.00 | 0.00 | 95 | 1016.1 |
| 20260831051549 | 25 | 180 | 1.6 | 4.8 | 0.00 | 0.00 | 0.00 | 94 | 1016.0 |
| 20260831050036 | 25 | 180 | 3.2 | 4.8 | 0.00 | 0.00 | 0.00 | 94 | 1015.9 |
| 20260831044535 | 25 | 180 | 3.2 | 6.4 | 0.00 | 0.00 | 0.00 | 93 | 1016.0 |
| 20260831043034 | 25 | 148 | 0.0 | 3.2 | 0.00 | 0.00 | 0.00 | 93 | 1015.8 |
| 20260831041535 | 25 | 148 | 1.6 | 3.2 | 0.00 | 0.00 | 0.00 | 92 | 1015.8 |
| 20260831040043 | 25 | 148 | 0.0 | 3.2 | 0.00 | 0.00 | 0.00 | 92 | 1015.8 |
| 20260831034530 | 25 | 148 | 0.0 | 4.8 | 0.00 | 0.00 | 0.00 | 91 | 1015.8 |
| 20260831033032 | 26 | 148 | 1.6 | 4.8 | 0.00 | 0.00 | 0.00 | 90 | 1015.6 |
| 20260831031530 | 26 | 148 | 3.2 | 8.0 | 0.00 | 0.00 | 0.00 | 89 | 1015.6 |
| 20260831030030 | 26 | 155 | 3.2 | 8.0 | 0.00 | 0.00 | 0.00 | 88 | 1015.2 |
| 20260831024529 | 26 | 155 | 3.2 | 6.4 | 0.00 | 0.00 | 0.00 | 86 | 1015.1 |
| 20260831023037 | 27 | 151 | 8.0 | 12.9 | 0.00 | 0.00 | 0.00 | 84 | 1014.8 |
| 20260831021547 | 27 | 140 | 6.4 | 12.9 | 0.00 | 0.00 | 0.00 | 83 | 1014.7 |
| 20260831020028 | 27 | 138 | 11.3 | 16.1 | 0.00 | 0.00 | 0.00 | 81 | 1014.4 |
| 20260831014527 | 28 | 144 | 6.4 | 14.5 | 0.00 | 0.00 | 0.00 | 81 | 1014.2 |
| 20260831013027 | 28 | 152 | 8.0 | 12.9 | 0.00 | 0.00 | 0.00 | 79 | 1014.0 |
| 20260831011527 | 29 | 153 | 9.7 | 17.7 | 0.00 | 0.00 | 0.00 | 76 | 1014.0 |
| 20260831010041 | 29 | 168 | 11.3 | 17.7 | 0.00 | 0.00 | 0.00 | 76 | 1014.0 |
| 20260831004525 | 30 | 145 | 6.4 | 12.9 | 0.00 | 0.00 | 0.00 | 74 | 1013.9 |
| 20260831003025 | 31 | 141 | 11.3 | 17.7 | 0.00 | 0.00 | 0.00 | 69 | 1013.6 |
| 20260831001534 | 31 | 132 | 11.3 | 20.9 | 0.00 | 0.00 | 0.00 | 67 | 1013.6 |
| 20260831000024 | 32 | 129 | 16.1 | 25.7 | 0.00 | 0.00 | 0.00 | 64 | 1013.5 |
| 20260830234523 | 32 | 144 | 12.9 | 24.1 | 0.00 | 0.00 | 0.00 | 66 | 1013.5 |
| 20260830233023 | 33 | 155 | 19.3 | 29.0 | 0.00 | 0.00 | 0.00 | 62 | 1013.5 |
| 20260830231528 | 32 | 150 | 9.7 | 16.1 | 0.00 | 0.00 | 0.00 | 69 | 1013.5 |
| 20260830230021 | 31 | 173 | 4.8 | 9.7 | 0.00 | 0.00 | 0.00 | 72 | 1013.5 |
| 20260830224521 | 31 | 164 | 6.4 | 11.3 | 0.00 | 0.00 | 0.00 | 70 | 1013.7 |
| 20260830223023 | 31 | 176 | 8.0 | 16.1 | 0.00 | 0.00 | 0.00 | 69 | 1013.6 |
| 20260830221520 | 32 | 176 | 9.7 | 17.7 | 0.00 | 0.00 | 0.00 | 67 | 1013.7 |
| 20260830220022 | 32 | 165 | 9.7 | 27.4 | 0.00 | 0.00 | 0.00 | 67 | 1013.7 |
| 20260830214517 | 32 | 153 | 14.5 | 25.7 | 0.00 | 0.00 | 0.00 | 64 | 1013.7 |
| 20260830213015 | 34 | 128 | 19.3 | 33.8 | 0.00 | 0.00 | 0.00 | 54 | 1013.8 |
| 20260830211521 | 35 | 113 | 9.7 | 17.7 | 0.00 | 0.00 | 0.00 | 56 | 1014.0 |
| 20260830210014 | 34 | 107 | 8.0 | 17.7 | 0.00 | 0.00 | 0.00 | 52 | 1014.1 |
| 20260830204510 | 34 | 142 | 4.8 | 17.7 | 0.00 | 0.00 | 0.00 | 51 | 1014.3 |
| 20260830203012 | 35 | 30 | 0.0 | 8.0 | 0.00 | 0.00 | 0.00 | 52 | 1014.3 |
| 20260830201505 | 35 | 96 | 1.6 | 16.1 | 0.00 | 0.00 | 0.00 | 55 | 1014.8 |
| 20260830200001 | 35 | 78 | 3.2 | 9.7 | 0.00 | 0.00 | 0.00 | 57 | 1015.0 |
| 20260830194559 | 34 | 281 | 3.2 | 8.0 | 0.00 | 0.00 | 0.00 | 58 | 1015.2 |
| 20260830193056 | 33 | 102 | 4.8 | 20.9 | 0.00 | 0.00 | 0.00 | 60 | 1015.6 |
| 20260830191557 | 33 | 168 | 6.4 | 20.9 | 0.00 | 0.00 | 0.00 | 59 | 1015.7 |
| 20260830190050 | 33 | 153 | 4.8 | 11.3 | 0.00 | 0.00 | 0.00 | 62 | 1016.1 |
| 20260830184549 | 33 | 134 | 3.2 | 12.9 | 0.00 | 0.00 | 0.00 | 64 | 1016.2 |
| 20260830183054 | 32 | 163 | 4.8 | 14.5 | 0.00 | 0.00 | 0.00 | 66 | 1016.4 |
| 20260830181549 | 32 | 192 | 8.0 | 17.7 | 0.00 | 0.00 | 0.00 | 66 | 1016.7 |
| 20260830180054 | 32 | 151 | 8.0 | 14.5 | 0.00 | 0.00 | 0.00 | 66 | 1016.9 |
| 20260830174547 | 31 | 69 | 4.8 | 8.0 | 0.00 | 0.00 | 0.00 | 71 | 1017.0 |
| 20260830173057 | 31 | 212 | 4.8 | 12.9 | 0.00 | 0.00 | 0.00 | 72 | 1017.2 |
| 20260830171548 | 31 | 348 | 1.6 | 9.7 | 0.00 | 0.00 | 0.00 | 74 | 1017.4 |
| 20260830170034 | 30 | 215 | 1.6 | 11.3 | 0.00 | 0.00 | 0.00 | 77 | 1017.6 |
| 20260830164533 | 30 | 244 | 4.8 | 12.9 | 0.00 | 0.00 | 0.00 | 78 | 1017.8 |
| 20260830163029 | 30 | 227 | 4.8 | 11.3 | 0.00 | 0.00 | 0.00 | 79 | 1017.9 |
| 20260830161527 | 29 | 257 | 4.8 | 11.3 | 0.00 | 0.00 | 0.00 | 82 | 1017.8 |
| 20260830160031 | 29 | 194 | 4.8 | 8.0 | 0.00 | 0.00 | 0.00 | 83 | 1017.7 |
| 20260830154523 | 28 | 221 | 0.0 | 9.7 | 0.00 | 0.00 | 0.00 | 85 | 1017.8 |
| 20260830153020 | 28 | 141 | 4.8 | 11.3 | 0.00 | 0.00 | 0.00 | 89 | 1017.9 |
| 20260830151520 | 27 | 312 | 3.2 | 6.4 | 0.00 | 0.00 | 0.00 | 92 | 1017.8 |
| 20260830150014 | 27 | 319 | 0.0 | 6.4 | 0.00 | 0.00 | 0.00 | 95 | 1017.7 |
| 20260830144516 | 27 | 331 | 1.6 | 6.4 | 0.00 | 0.00 | 0.00 | 98 | 1017.8 |
| 20260830143011 | 26 | 47 | 1.6 | 6.4 | 0.00 | 0.00 | 0.00 | 99 | 1017.8 |
| 20260830141507 | 26 | 79 | 1.6 | 9.7 | 0.00 | 0.00 | 0.00 | 100 | 1017.7 |
| 20260830140004 | 25 | 81 | 3.2 | 9.7 | 0.00 | 0.00 | 0.00 | 100 | 1017.7 |
| 20260830134503 | 25 | 68 | 3.2 | 6.4 | 0.00 | 0.00 | 0.00 | 100 | 1017.6 |
| 20260830133103 | 25 | 65 | 4.8 | 9.7 | 0.00 | 0.00 | 0.00 | 100 | 1017.5 |
| 20260830131615 | 24 | 67 | 3.2 | 9.7 | 0.00 | 0.00 | 0.00 | 100 | 1017.4 |
| 20260830130104 | 23 | 99 | 3.2 | 6.4 | 0.00 | 0.00 | 0.00 | 100 | 1017.2 |
| 20260830124556 | 23 | 47 | 3.2 | 6.4 | 0.00 | 0.00 | 0.00 | 99 | 1017.1 |
| 20260830123056 | 23 | 78 | 1.6 | 4.8 | 0.00 | 0.00 | 0.00 | 99 | 1016.9 |
| 20260830121555 | 23 | 139 | 0.0 | 0.0 | 0.00 | 0.00 | 0.00 | 100 | 1016.8 |
| 20260830120053 | 23 | 196 | 0.0 | 1.6 | 0.00 | 0.00 | 0.00 | 99 | 1016.5 |
| 20260830114554 | 23 | 196 | 0.0 | 0.0 | 0.00 | 0.00 | 0.00 | 99 | 1016.5 |
| 20260830113051 | 23 | 196 | 0.0 | 0.0 | 0.00 | 0.00 | 0.00 | 99 | 1016.4 |
| 20260830111551 | 23 | 196 | 0.0 | 0.0 | 0.00 | 0.00 | 0.00 | 99 | 1016.3 |
| 20260830110107 | 23 | 196 | 0.0 | 0.0 | 0.00 | 0.00 | 0.00 | 99 | 1016.5 |
| 20260830104549 | 23 | 196 | 0.0 | 0.0 | 0.00 | 0.00 | 0.00 | 99 | 1016.3 |
| 20260830103049 | 23 | 196 | 0.0 | 1.6 | 0.00 | 0.00 | 0.00 | 99 | 1016.2 |
| 20260830101548 | 23 | 196 | 0.0 | 0.0 | 0.00 | 0.00 | 0.00 | 98 | 1016.3 |
| 20260830100046 | 23 | 196 | 0.0 | 0.0 | 0.00 | 0.00 | 0.00 | 99 | 1016.2 |
| 20260830094545 | 23 | 196 | 0.0 | 0.0 | 0.00 | 0.00 | 0.00 | 99 | 1016.2 |
| 20260830093104 | 23 | 196 | 0.0 | 0.0 | 0.00 | 0.00 | 0.00 | 99 | 1016.2 |
| 20260830091544 | 23 | 196 | 0.0 | 0.0 | 0.00 | 0.00 | 0.00 | 99 | 1016.1 |
| 20260830090049 | 24 | 196 | 0.0 | 0.0 | 0.00 | 0.00 | 0.00 | 98 | 1016.1 |
| 20260830084541 | 24 | 196 | 0.0 | 0.0 | 0.00 | 0.00 | 0.00 | 98 | 1016.0 |
| 20260830083041 | 24 | 196 | 0.0 | 0.0 | 0.00 | 0.00 | 0.00 | 98 | 1016.1 |
| 20260830081539 | 24 | 196 | 0.0 | 0.0 | 0.00 | 0.00 | 0.00 | 98 | 1016.2 |